EW3608 Weather Reports


time (UTC)temp
F
wind
direction
speed
knots
gust
knots
rain 1hr
in
rain 24hr
in
rain mn
in
humidity
%
barometer
mb
20260831185512 79 107 0.9 1.7 0.00 0.07 0.00 40 1021.9
20260831185012 79 12 0.9 4.3 0.00 0.07 0.00 41 1021.9
20260831184531 78 360 1.7 4.3 0.00 0.07 0.00 41 1021.9
20260831184017 78 32 0.0 4.3 0.00 0.07 0.00 41 1021.9
20260831183517 77 46 1.7 4.3 0.00 0.07 0.00 41 1022.0
20260831183009 77 34 1.7 4.3 0.00 0.07 0.00 40 1022.0
20260831182506 77 28 0.9 2.6 0.00 0.07 0.00 41 1022.0
20260831182012 77 360 0.9 2.6 0.00 0.07 0.00 41 1022.1
20260831181521 76 317 0.0 1.7 0.00 0.07 0.00 40 1022.1
20260831181014 76 352 0.0 2.6 0.00 0.07 0.00 40 1022.1
20260831180515 75 350 0.0 2.6 0.00 0.07 0.00 43 1022.1
20260831180030 75 13 0.9 3.5 0.00 0.07 0.00 43 1022.1
20260831175521 75 346 0.9 3.5 0.00 0.07 0.00 43 1022.2
20260831175007 75 9 0.0 1.7 0.00 0.07 0.00 44 1022.2
20260831174531 74 326 0.0 2.6 0.00 0.07 0.00 44 1022.2
20260831174014 74 34 0.9 2.6 0.00 0.07 0.00 45 1022.2
20260831173515 74 21 0.9 2.6 0.00 0.07 0.00 45 1022.2
20260831173027 74 48 1.7 2.6 0.00 0.07 0.00 45 1022.2
20260831172520 74 94 0.9 2.6 0.00 0.07 0.00 47 1022.2
20260831172016 74 42 0.9 3.5 0.00 0.07 0.00 45 1022.3
20260831171510 74 51 0.9 3.5 0.00 0.07 0.00 47 1022.2
20260831171007 74 48 0.9 2.6 0.00 0.07 0.00 43 1022.3
20260831170508 74 58 0.9 3.5 0.00 0.07 0.00 44 1022.3
20260831170018 73 45 0.9 3.5 0.00 0.07 0.00 45 1022.3
20260831165514 73 38 0.9 3.5 0.00 0.07 0.00 45 1022.3
20260831165017 73 28 0.0 3.5 0.00 0.07 0.00 46 1022.2
20260831164529 73 38 1.7 3.5 0.00 0.07 0.00 47 1022.3
20260831164018 73 22 0.9 3.5 0.00 0.07 0.00 46 1022.3
20260831163504 73 34 2.6 3.5 0.00 0.07 0.00 45 1022.3
20260831163012 73 21 0.0 3.5 0.00 0.07 0.00 45 1022.2
20260831162509 73 22 0.9 4.3 0.00 0.07 0.00 45 1022.2
20260831162012 73 47 2.6 4.3 0.00 0.07 0.00 46 1022.2
20260831161528 73 81 1.7 5.2 0.00 0.07 0.00 48 1022.1
20260831161015 73 16 1.7 4.3 0.00 0.07 0.00 47 1022.0
20260831160514 73 37 0.9 2.6 0.00 0.07 0.00 49 1021.9
20260831160033 74 69 1.7 1.7 0.00 0.07 0.00 47 1021.9
20260831155506 73 46 0.0 1.7 0.00 0.07 0.00 43 1021.8
20260831155008 73 46 0.0 1.7 0.00 0.07 0.00 40 1021.9
20260831154526 73 46 0.9 1.7 0.00 0.07 0.00 46 1021.8
20260831154004 73 46 0.0 1.7 0.00 0.07 0.00 45 1021.8
20260831153503 72 46 0.9 1.7 0.00 0.07 0.00 48 1021.7
20260831153006 72 18 0.0 0.9 0.00 0.07 0.00 51 1021.7
20260831152503 71 28 0.0 0.9 0.00 0.07 0.00 52 1021.7
20260831152004 71 38 0.9 2.6 0.00 0.07 0.00 52 1021.8
20260831151504 70 57 0.0 2.6 0.00 0.07 0.00 58 1021.8
20260831151004 70 39 0.9 2.6 0.00 0.07 0.00 58 1021.8
20260831150502 70 41 0.0 2.6 0.00 0.07 0.00 58 1021.8
20260831150002 69 41 0.0 2.6 0.00 0.07 0.00 59 1021.8
20260831145503 69 38 0.9 2.6 0.00 0.07 0.00 55 1021.8
20260831145005 68 167 0.0 2.6 0.00 0.07 0.00 53 1021.8
20260831144505 68 195 0.0 2.6 0.00 0.07 0.00 57 1021.9
20260831144004 67 174 0.0 2.6 0.00 0.07 0.00 57 1021.9
20260831143504 66 188 0.0 1.7 0.00 0.07 0.00 64 1021.9
20260831143004 65 179 0.0 1.7 0.00 0.07 0.00 64 1021.8
20260831142504 64 177 0.0 1.7 0.00 0.07 0.00 65 1021.7
20260831142002 64 150 0.0 1.7 0.00 0.07 0.00 66 1021.7
20260831141502 64 90 0.0 1.7 0.00 0.07 0.00 69 1021.7
20260831141003 63 67 0.0 1.7 0.00 0.07 0.00 70 1021.7
20260831140504 63 67 0.0 1.7 0.00 0.07 0.00 70 1021.7
20260831140006 62 187 0.0 1.7 0.00 0.07 0.00 69 1021.6
20260831135503 62 201 0.0 1.7 0.00 0.07 0.00 69 1021.5
20260831135003 62 190 0.0 1.7 0.00 0.07 0.00 69 1021.4
20260831134505 62 176 0.0 1.7 0.00 0.07 0.00 68 1021.3
20260831134002 62 176 0.0 1.7 0.00 0.07 0.00 68 1021.3
20260831133504 61 176 0.0 0.0 0.00 0.07 0.00 67 1021.2
20260831133006 61 176 0.0 0.0 0.00 0.07 0.00 66 1021.1
20260831132504 61 176 0.0 1.7 0.00 0.07 0.00 66 1021.1
20260831132004 61 176 0.0 1.7 0.00 0.07 0.00 65 1021.0
20260831131510 61 176 0.0 1.7 0.00 0.07 0.00 65 1021.1
20260831131009 61 176 0.0 1.7 0.00 0.07 0.00 64 1020.9
20260831130505 61 176 0.0 1.7 0.00 0.07 0.00 63 1020.9
20260831130003 62 176 0.0 1.7 0.00 0.07 0.00 63 1020.8
20260831125503 62 111 0.0 1.7 0.00 0.07 0.00 63 1020.8
20260831125004 62 76 0.0 1.7 0.00 0.07 0.00 61 1020.6
20260831124509 62 76 0.0 1.7 0.00 0.07 0.00 62 1020.4
20260831124005 62 76 0.0 1.7 0.00 0.07 0.00 60 1020.4
20260831123505 63 76 0.0 1.7 0.00 0.07 0.00 57 1020.5
20260831123008 63 76 0.0 0.9 0.00 0.07 0.00 57 1020.5
20260831122504 63 76 0.0 1.7 0.00 0.07 0.00 57 1020.4
20260831122004 64 76 0.0 1.7 0.00 0.07 0.00 56 1020.4
20260831121505 64 76 0.0 1.7 0.00 0.07 0.00 56 1020.2
20260831121005 64 9 0.0 1.7 0.00 0.07 0.00 56 1020.1
20260831120507 64 257 0.0 2.6 0.00 0.07 0.00 54 1020.1
20260831120011 64 283 0.0 2.6 0.00 0.07 0.00 54 1020.1
20260831115506 64 239 0.0 1.7 0.00 0.07 0.00 53 1020.1
20260831115004 64 225 0.0 1.7 0.00 0.07 0.00 52 1019.9
20260831114510 64 239 0.0 3.5 0.00 0.07 0.00 54 1020.0
20260831114004 63 220 0.9 3.5 0.00 0.07 0.00 54 1020.0
20260831113506 62 243 0.9 2.6 0.00 0.07 0.00 59 1020.0
20260831113009 62 176 0.0 1.7 0.00 0.07 0.00 60 1020.0
20260831112503 62 312 0.0 1.7 0.00 0.07 0.00 60 1019.9
20260831112005 62 312 0.0 1.7 0.00 0.07 0.00 60 1019.9
20260831111508 62 201 0.0 1.7 0.00 0.07 0.00 60 1019.8
20260831111007 62 236 0.0 1.7 0.00 0.07 0.00 61 1019.9
20260831110508 62 232 0.9 1.7 0.00 0.07 0.00 59 1019.9
20260831110003 62 146 0.0 1.7 0.00 0.07 0.00 59 1019.8
20260831105506 62 153 0.0 1.7 0.00 0.07 0.00 59 1019.9
20260831105007 62 153 0.0 1.7 0.00 0.07 0.00 58 1019.8
20260831104526 62 154 0.9 1.7 0.00 0.07 0.00 56 1019.7
20260831104007 61 205 0.0 1.7 0.00 0.07 0.00 61 1019.7
20260831103505 61 205 0.0 1.7 0.00 0.07 0.00 62 1019.7
20260831103008 61 104 0.0 1.7 0.00 0.07 0.00 63 1019.6
20260831102508 61 145 0.0 1.7 0.00 0.07 0.00 63 1019.7
20260831102005 61 108 0.0 1.7 0.00 0.07 0.00 65 1019.6
20260831101507 61 103 0.0 2.6 0.00 0.07 0.00 65 1019.6
20260831101005 61 117 0.0 2.6 0.00 0.07 0.00 66 1019.6
20260831100509 61 172 0.0 1.7 0.00 0.07 0.00 66 1019.6
20260831100009 61 172 0.0 1.7 0.00 0.07 0.00 65 1019.4
20260831095512 61 169 0.0 1.7 0.00 0.07 0.00 64 1019.3
20260831095007 62 168 0.0 1.7 0.00 0.07 0.00 65 1019.2
20260831094514 62 190 0.0 1.7 0.00 0.07 0.00 66 1019.2
20260831094004 62 199 0.0 1.7 0.00 0.07 0.00 66 1019.2
20260831093504 62 202 0.0 1.7 0.00 0.07 0.00 65 1019.1
20260831090004 63 215 0.0 1.7 0.00 0.07 0.00 62 1019.1
20260831085503 63 219 0.0 0.9 0.00 0.07 0.00 61 1019.1
20260831085006 64 187 0.0 1.7 0.00 0.07 0.00 61 1019.2
20260831084515 64 186 0.0 1.7 0.00 0.07 0.00 60 1019.2
20260831084007 64 192 0.0 1.7 0.00 0.07 0.00 59 1019.2
20260831083508 64 192 0.0 1.7 0.00 0.07 0.00 56 1019.3
20260831083014 65 188 0.0 1.7 0.00 0.07 0.00 56 1019.3
20260831082506 65 188 0.0 1.7 0.00 0.07 0.00 55 1019.4
20260831082003 66 188 0.0 1.7 0.00 0.07 0.00 54 1019.3
20260831081508 66 188 0.0 1.7 0.00 0.07 0.00 53 1019.4
20260831081010 67 188 0.0 1.7 0.00 0.07 0.00 51 1019.5
20260831080507 67 188 0.0 1.7 0.00 0.07 0.00 50 1019.5
20260831080018 68 185 0.0 1.7 0.00 0.07 0.00 48 1019.6
20260831075513 68 185 0.0 1.7 0.00 0.07 0.00 49 1019.6
20260831075007 68 185 0.0 1.7 0.00 0.07 0.00 48 1019.5
20260831074514 68 185 0.0 1.7 0.00 0.07 0.00 46 1019.6
20260831074006 68 164 0.0 0.9 0.00 0.07 0.00 46 1019.7
20260831073504 68 145 0.9 1.7 0.00 0.07 0.00 47 1019.8
20260831073011 69 155 0.9 1.7 0.00 0.07 0.00 46 1019.9
20260831072510 69 114 0.0 2.6 0.00 0.07 0.00 44 1019.9
20260831072008 69 186 0.0 2.6 0.00 0.07 0.00 44 1019.9
20260831071519 69 206 0.9 3.5 0.00 0.07 0.00 44 1019.9
20260831071005 69 275 0.9 3.5 0.00 0.07 0.00 44 1019.9
20260831070504 69 277 0.0 1.7 0.00 0.07 0.00 47 1019.9
20260831070007 69 285 0.0 1.7 0.00 0.07 0.00 46 1020.0
20260831065506 68 320 0.0 1.7 0.00 0.07 0.00 46 1020.1
20260831065008 68 302 0.0 2.6 0.00 0.07 0.00 49 1020.1
20260831064522 68 5 0.0 2.6 0.00 0.07 0.00 49 1019.9
20260831064010 68 342 0.9 1.7 0.00 0.07 0.00 50 1020.0
20260831063508 68 79 0.0 2.6 0.00 0.07 0.00 49 1020.1
20260831063004 68 57 0.9 2.6 0.00 0.07 0.00 48 1020.0
20260831062504 69 46 0.9 2.6 0.00 0.07 0.00 46 1020.0
20260831062005 69 36 0.0 1.7 0.00 0.07 0.00 47 1020.1
20260831061511 69 144 0.0 1.7 0.00 0.07 0.00 46 1020.1
20260831061014 70 105 0.0 1.7 0.00 0.07 0.00 45 1020.1
20260831060512 70 194 0.0 2.6 0.00 0.07 0.00 44 1020.1
20260831060021 70 298 0.9 4.3 0.00 0.07 0.00 44 1020.1
20260831055511 70 161 1.7 4.3 0.00 0.07 0.07 43 1020.1
20260831055003 70 334 0.9 8.7 0.00 0.07 0.07 43 1020.2
20260831054506 70 258 1.7 8.7 0.00 0.07 0.07 43 1020.2
20260831054004 70 232 2.6 10.4 0.00 0.07 0.07 43 1020.3
20260831053508 71 169 3.5 10.4 0.00 0.07 0.07 43 1020.3
20260831053014 71 154 2.6 8.7 0.00 0.07 0.07 42 1020.2
20260831052513 71 167 2.6 12.2 0.00 0.07 0.07 42 1020.4
20260831052011 71 205 1.7 12.2 0.00 0.07 0.07 42 1020.7
20260831051525 72 282 1.7 10.4 0.00 0.07 0.07 41 1021.0
20260831051003 72 246 2.6 10.4 0.00 0.07 0.07 41 1021.3
20260831050503 73 198 2.6 11.3 0.00 0.07 0.07 41 1021.3
20260831050013 73 350 4.3 12.2 0.00 0.07 0.07 40 1021.6
20260831045507 73 187 4.3 12.2 0.00 0.07 0.07 40 1021.7
20260831045008 74 192 5.2 15.6 0.00 0.07 0.07 41 1021.5
20260831044523 74 294 5.2 15.6 0.00 0.07 0.07 40 1021.6
20260831044011 74 194 4.3 15.6 0.00 0.07 0.07 40 1021.6
20260831043510 73 267 4.3 15.6 0.00 0.07 0.07 41 1021.6
20260831043004 71 346 4.3 14.8 0.00 0.07 0.07 43 1021.4
20260831042503 68 173 2.6 11.3 0.00 0.07 0.07 49 1021.3
20260831042007 66 248 2.6 7.0 0.00 0.07 0.07 56 1021.3
20260831041513 65 203 0.0 1.7 0.00 0.07 0.07 62 1021.1
20260831041012 65 207 0.0 1.7 0.00 0.07 0.07 63 1021.0
20260831040512 65 207 0.0 1.7 0.00 0.07 0.07 63 1020.7
20260831040021 66 207 0.0 1.7 0.00 0.07 0.07 62 1020.5
20260831035511 66 207 0.0 1.7 0.00 0.07 0.07 62 1020.4
20260831035003 66 207 0.0 1.7 0.00 0.07 0.07 1020.3
20260831034507 66 207 0.0 1.7 0.00 0.07 0.07 1020.3
20260831034007 66 220 0.0 1.7 0.00 0.07 0.07 1020.2
20260831033511 66 98 0.0 1.7 0.00 0.07 0.07 1020.2
20260831033020 67 98 0.0 1.7 0.00 0.07 0.07 61 1020.3
20260831032510 67 115 0.0 1.7 0.00 0.07 0.07 61 1020.3
20260831032012 67 115 0.0 1.7 0.00 0.07 0.07 59 1020.3
20260831031530 67 115 0.0 1.7 0.00 0.07 0.07 60 1020.2
20260831031003 67 119 0.0 1.7 0.00 0.07 0.07 1020.2
20260831030506 67 139 0.0 1.7 0.00 0.07 0.07 1020.1
20260831030010 67 175 0.0 1.7 0.00 0.07 0.07 1020.1
20260831025510 67 111 0.0 1.7 0.00 0.07 0.07 1020.0
20260831025011 67 117 0.0 1.7 0.00 0.07 0.07 1019.9
20260831024526 67 107 0.9 1.7 0.00 0.07 0.07 1019.9
20260831024014 67 103 0.9 1.7 0.00 0.07 0.07 59 1019.8
20260831023516 68 49 0.0 1.7 0.00 0.07 0.07 59 1019.8
20260831023005 68 92 0.0 1.7 0.00 0.07 0.07 59 1019.8
20260831022506 68 51 0.0 1.7 0.00 0.07 0.07 58 1019.8
20260831022006 68 104 0.0 1.7 0.00 0.07 0.07 57 1019.7
20260831021516 69 112 0.0 1.7 0.00 0.07 0.07 57 1019.5
20260831021012 69 132 0.0 5.2 0.00 0.07 0.07 57 1019.4
20260831020514 69 352 0.0 5.2 0.00 0.07 0.07 57 1019.4
20260831020027 69 119 0.0 1.7 0.00 0.07 0.07 57 1019.4
20260831015517 69 94 0.0 1.7 0.00 0.07 0.07 55 1019.4
20260831015005 70 33 0.0 1.7 0.00 0.07 0.07 55 1019.4
20260831014510 70 33 0.0 1.7 0.00 0.07 0.07 54 1019.4
20260831014010 71 69 0.0 1.7 0.00 0.07 0.07 53 1019.4
20260831013512 71 109 0.0 1.7 0.00 0.07 0.07 51 1019.4
20260831013038 71 109 0.0 1.7 0.00 0.07 0.07 50 1019.3
20260831012513 72 167 0.0 1.7 0.00 0.07 0.07 49 1019.3
20260831012012 72 231 0.9 1.7 0.00 0.07 0.07 49 1019.3
20260831011526 73 34 0.0 1.7 0.00 0.07 0.07 47 1019.1
20260831011003 73 150 0.0 1.7 0.00 0.07 0.07 46 1019.2
20260831010508 74 213 0.9 1.7 0.00 0.07 0.07 44 1019.2
20260831010017 75 60 0.0 7.0 0.00 0.07 0.07 43 1019.0
20260831005513 75 34 1.7 7.0 0.00 0.07 0.07 42 1019.1
20260831005015 76 350 0.9 4.3 0.00 0.07 0.07 40 1019.0
20260831004527 76 232 0.0 4.3 0.00 0.07 0.07 40 1019.1
20260831004016 76 213 0.0 8.7 0.00 0.07 0.07 41 1019.1
20260831003517 77 165 1.7 8.7 0.00 0.07 0.07 37 1019.2
20260831003027 77 179 1.7 4.3 0.00 0.07 0.07 39 1019.2
20260831002514 78 144 1.7 7.0 0.00 0.07 0.07 38 1019.3
20260831002014 79 161 0.9 7.0 0.00 0.07 0.07 35 1019.3
20260831001525 79 167 0.9 4.3 0.00 0.07 0.07 35 1019.2
20260831001016 79 262 0.9 6.1 0.00 0.07 0.07 35 1019.3
20260831000516 79 263 1.7 6.1 0.00 0.07 0.07 35 1019.4
20260831000026 79 57 0.0 4.3 0.00 0.07 0.07 34 1019.2
20260830235515 79 211 0.9 10.4 0.00 0.07 0.07 35 1019.1
20260830235014 79 221 1.7 10.4 0.00 0.07 0.07 35 1018.9
20260830234528 80 204 5.2 12.2 0.00 0.07 0.07 34 1018.8
20260830234010 80 194 4.3 12.2 0.00 0.07 0.07 34 1019.0
20260830233513 81 255 3.5 11.3 0.00 0.07 0.07 33 1019.0
20260830233024 80 184 3.5 11.3 0.00 0.07 0.07 35 1018.9
20260830232516 80 188 3.5 12.2 0.00 0.07 0.07 34 1018.9
20260830232014 78 173 3.5 12.2 0.00 0.07 0.07 35 1018.8
20260830231532 78 227 1.7 8.7 0.00 0.07 0.07 36 1018.9
20260830231017 78 209 3.5 10.4 0.00 0.07 0.07 35 1018.8
20260830230516 78 191 3.5 13.0 0.00 0.07 0.07 36 1018.7
20260830230020 78 255 2.6 14.8 0.00 0.07 0.07 36 1018.7
20260830225511 77 217 4.3 14.8 0.00 0.07 0.07 37 1018.6
20260830225015 76 215 4.3 11.3 0.00 0.07 0.07 37 1018.7
20260830224528 76 225 3.5 11.3 0.00 0.07 0.07 38 1018.7
20260830224019 76 199 3.5 10.4 0.00 0.07 0.07 38 1018.8
20260830223515 75 190 3.5 10.4 0.00 0.07 0.07 38 1018.9
20260830223027 75 267 4.3 10.4 0.00 0.07 0.07 39 1018.9
20260830222513 75 221 0.9 15.6 0.00 0.07 0.07 40 1019.0
20260830222011 75 242 1.7 15.6 0.00 0.07 0.07 39 1019.1
20260830221524 74 231 6.1 14.8 0.00 0.07 0.07 39 1019.2
20260830221013 74 161 3.5 12.2 0.00 0.07 0.07 41 1019.2
20260830220515 74 235 1.7 5.2 0.00 0.07 0.07 40 1019.4
20260830220036 74 269 1.7 9.6 0.00 0.07 0.07 41 1019.4
20260830215517 73 234 3.5 9.6 0.00 0.07 0.07 41 1019.4
20260830215014 73 228 0.9 11.3 0.00 0.07 0.07 44 1019.8
20260830214529 73 251 3.5 12.2 0.00 0.07 0.07 43 1019.6
20260830214011 72 231 4.3 13.9 0.00 0.07 0.07 43 1019.9
20260830213503 72 167 6.1 13.9 0.00 0.07 0.07 44 1020.1
20260830213003 71 223 1.7 13.9 0.00 0.07 0.07 46 1020.1
20260830212504 71 242 4.3 13.9 0.01 0.07 0.07 45 1020.3
20260830212003 71 300 3.5 11.3 0.01 0.07 0.07 48 1020.3
20260830211512 70 323 2.6 11.3 0.06 0.07 0.07 54 1020.5
20260830211010 69 255 1.7 9.6 0.06 0.09 0.07 55 1020.5
20260830210509 67 323 3.5 9.6 0.06 0.11 0.07 59 1020.4
20260830210003 66 136 1.7 7.8 0.06 0.11 0.07 66 1020.6
20260830205502 65 65 0.9 4.3 0.06 0.11 0.07 71 1020.6
20260830205002 64 326 0.9 2.6 0.06 0.11 0.07 71 1020.8
20260830204504 64 247 0.0 1.7 0.06 0.11 0.07 74 1020.8
20260830204004 64 251 0.9 3.5 0.06 0.11 0.07 71 1020.9
20260830203504 65 110 0.0 10.4 0.06 0.11 0.07 69 1020.9
20260830203023 66 305 0.9 11.3 0.06 0.11 0.07 67 1020.8
20260830202510 68 298 5.2 11.3 0.05 0.10 0.06 60 1021.3
20260830202003 71 219 3.5 11.3 0.06 0.10 0.06 61 1021.0
20260830201505 74 253 2.6 7.8 0.01 0.05 0.01 58 1020.9
20260830201005 74 251 0.0 1.7 0.01 0.05 0.01 58 1020.3
20260830200504 73 329 0.0 1.7 0.01 0.05 0.01 58 1019.9
20260830200007 73 352 0.0 1.7 0.01 0.05 0.01 60 1019.6
20260830195507 73 338 0.0 1.7 0.01 0.05 0.01 65 1019.4
20260830195012 72 97 0.0 1.7 0.01 0.05 0.01 63 1019.1
20260830194523 73 97 0.0 1.7 0.01 0.05 0.01 65 1018.9
20260830194004 73 61 0.0 1.7 0.01 0.05 0.01 61 1018.7
20260830193504 74 257 0.0 4.3 0.01 0.05 0.01 61 1018.7
20260830193005 75 255 0.0 7.0 0.01 0.05 0.01 57 1018.5
20260830192504 78 40 3.5 8.7 0.01 0.05 0.01 46 1018.4
20260830192008 81 9 2.6 8.7 0.00 0.04 0.00 41 1018.4
20260830191515 83 247 0.0 1.7 0.00 0.04 0.00 35 1018.2
20260830191012 83 83 0.9 2.6 0.00 0.04 0.00 33 1017.8
20260830190516 84 187 0.9 5.2 0.00 0.04 0.00 33 1017.5
20260830190004 84 109 2.6 5.2 0.00 0.04 0.00 32 1017.4